Погода в Оммене

Нидерланды     52°31′15″N   6°25′31″E
темп.,
°C
ветер,
м/с
пор.,
м/с
влажн.,
%
обл.,
%
осадки,
мм/ч
давл.,
гПа
погр.,
м
12 мая, ср
ср1223:00+11ссв2394100 0.1 1009145
02:00+10сз2494100 0.1 1010149
05:00+9з3898100 0.0 1010215
08:00+10з4782100 0.0 1011293
11:00+14з456642 0.0 10121103
14:00+15зсз4457100 0.1 10111541
17:00+16сз335899 0.1 10111236
20:00+13сз357493 0.1 1010155
13 мая, чт
чт1323:00+9св359288 0.0 101198
02:00+7всв348855 0.0 101059
05:00+6всв2383100 0.0 101047
08:00+9всв237393 0.0 1009190
11:00+14св2257100 0.0 1009697
14:00+16ссв334946 0.0 10071263
17:00+17ссв4350100 0.0 10061659
20:00+13ссв576872 0.0 1006350
14 мая, пт
пт1423:00+8ссв348860 0.0 100771
02:00+6св2292100 0.0 100732
05:00+6ссв1193100 0.0 100711
08:00+9сз1182100 0.0 1007165
11:00+13зсз226386 0.0 1008784
14:00+14зюз336299 0.1 1007924
17:00+15з335864 0.0 10071198
20:00+13зсз357129 0.0 1007245
15 мая, сб
сб1523:00+8ссв33935 0.0 100842
02:00+6св229523 0.0 100816
05:00+8юв239169 0.0 100699
08:00+10ю34875 0.0 1006252
11:00+14ю56688 0.4 10041033
14:00+15ю5661100 1.8 10031646
17:00+13юз8978100 2.1 1002908
20:00+11юз468199 2.3 1002596
16 мая, вс
вс1623:00+9ю379099 0.1 1003301
02:00+8ю4109783 0.3 1002288
05:00+7ююз51097100 0.1 1001270
08:00+8ююз61091100 0.5 1002449
11:00+11ююз7876100 0.1 1002925
14:00+13ююз6875100 0.7 10011357
17:00+12ююз577899 0.9 1000810
20:00+12ю4783100 1.5 999362